Location: Boursonne
(49.2024°N, 3.0468°E)
Time: 19:13:16
(UTC+00:00)

SeaSat 1 - Pass Details

Date: 03 March 2021
Orbit: 744 x 747 km, 108.0° (Epoch: 14 April)

Event Time Altitude Azimuth Distance (km) Brightness Sun altitude
Rises 19:33:12 0° 27° (NNE) 3,202 5.6 -20.1°
Reaches altitude 10° 19:35:29 10° 25° (NNE) 2,275 4.8 -20.5°
Maximum altitude 19:40:23 65° 304° (NW) 824 2.8 -21.2°
Drops below altitude 10° 19:45:15 10° 224° (SW) 2,262 5.3 -22.0°
Sets 19:47:31 0° 221° (SW) 3,183 6.0 -22.3°
